Dewpoint
12 11 12 12 11 9 7 4 9 7 9 10 10 11 12 12 11 11 7 -1 -0 -2 -5 3 8 5 3 -1 -3 12 10 9 7 4 3 7 11 12 12 12 12 12 11
11 10 11 12 12 11 10 8 9 10 9 8 9 10 10 4 1 -0 -1 2 4 1 -1 -4 -4 -5 -7 -6 -6 4 11 8 4 6 6 6 10 11 12 12 12 12 12
12 11 11 12 12 12 12 11 9 9 8 7 6 4 3 2 3 3 6 8 7 4 3 1 -1 -2 -5 -8 -7 -2 11 10 12 12 9 8 1 8 12 11 11 10 10
12 12 12 13 12 12 12 12 12 11 11 10 9 8 7 6 6 6 10 11 10 7 6 4 0 1 0 -6 -8 -8 3 11 11 12 11 11 9 11 4 1 2 3 3
10 11 11 11 11 11 11 11 11 11 11 11 11 10 10 9 8 6 8 9 9 9 8 7 4 2 4 2 -3 -8 -8 3 10 11 13 12 11 10 5 2 -0 -2 -3
9 9 9 8 7 8 9 9 9 9 8 8 8 9 10 10 10 9 9 8 8 8 8 7 7 5 3 6 5 2 -6 -1 6 9 11 12 12 11 5 3 -0 -1 -2
10 7 6 6 6 3 -1 -1 2 5 7 8 9 9 9 9 10 10 10 10 9 9 9 8 7 8 6 2 7 5 3 -1 6 7 10 9 12 12 7 4 1 4 4
10 9 5 4 5 2 -0 -1 -4 -5 -5 -4 1 5 8 9 9 9 9 9 10 10 10 9 8 8 9 7 0 5 5 2 7 9 8 10 12 13 8 4 4 10 9
5 4 3 3 3 2 -1 1 2 0 -0 -1 -4 -6 -2 2 9 8 10 10 10 10 9 9 9 8 9 9 7 -1 3 4 6 8 10 7 9 12 8 4 5 10 9
4 3 3 2 1 1 1 3 4 5 5 4 4 3 4 4 6 6 8 10 10 10 10 9 9 10 9 9 9 7 -2 4 9 10 10 8 9 10 12 2 3 9 10
6 4 3 3 2 2 2 3 2 5 6 5 5 4 4 4 4 5 5 5 1 -1 4 9 10 9 10 10 9 9 6 -1 8 9 9 9 8 9 12 8 2 5 7
4 3 2 2 2 2 2 3 3 5 5 6 5 5 3 4 4 5 6 7 8 8 8 7 8 10 10 10 10 10 11 6 -0 9 9 10 10 9 9 8 4 3 9
0 0 0 -0 -0 -0 -0 2 4 4 5 5 4 4 2 3 4 4 5 6 7 9 8 9 9 9 9 11 11 11 11 11 2 8 8 9 9 10 10 10 10 6 6
-2 -2 -1 -1 -1 -1 -1 1 5 6 6 6 5 4 3 2 3 4 6 6 7 7 9 9 9 9 9 9 11 12 12 12 10 9 7 7 8 7 8 9 10 11 4
-4 -4 -3 -2 -1 0 1 1 3 6 7 6 7 7 6 4 2 2 5 6 7 7 8 8 9 8 9 10 9 11 11 12 12 10 10 6 3 3 1 7 8 12 11
-11 -10 -10 -7 -4 -1 1 2 3 3 5 6 6 6 5 5 4 4 3 4 5 6 6 7 9 8 7 9 10 9 10 11 12 12 10 9 8 5 -2 -1 3 10 11
-14 -15 -14 -15 -15 -11 -8 -5 0 2 3 3 4 4 5 5 4 4 4 5 5 5 6 6 5 7 8 7 7 9 9 10 10 11 12 10 10 9 6 -3 -5 3 10
-17 -16 -18 -17 -17 -17 -17 -18 -18 -17 -14 -14 -12 -10 -7 -3 1 4 4 4 5 6 5 5 3 2 6 7 6 5 4 6 9 10 11 11 11 11 10 7 2 -7 1
-19 -19 -18 -18 -18 -18 -19 -20 -21 -22 -22 -22 -23 -23 -23 -24 -20 -15 -7 -0 3 4 4 4 4 6 6 6 6 5 6 7 6 5 6 10 11 11 11 11 9 5 -4
-19 -19 -18 -18 -18 -19 -19 -19 -20 -21 -23 -25 -26 -27 -28 -29 -29 -29 -28 -27 -18 -7 -0 3 4 4 6 7 7 7 6 6 7 7 6 5 5 9 11 11 11 10 7
-18 -18 -18 -18 -19 -19 -19 -20 -21 -22 -25 -26 -28 -29 -30 -31 -31 -32 -32 -32 -32 -31 -27 -14 -5 1 3 3 4 4 4 5 3 3 2 -2 -4 -1 4 10 11 10 10
-18 -18 -18 -18 -19 -20 -21 -22 -23 -25 -26 -28 -29 -30 -31 -32 -32 -32 -32 -33 -33 -33 -33 -32 -30 -18 -5 2 5 5 5 3 3 2 0 1 0 0 0 0 5 11 11
-17 -17 -17 -18 -19 -21 -22 -23 -24 -26 -27 -28 -29 -30 -31 -31 -31 -30 -30 -30 -30 -31 -32 -32 -32 -28 -26 -15 1 4 5 5 6 5 6 6 5 5 6 5 5 5 8
-16 -17 -17 -19 -20 -21 -22 -24 -25 -26 -26 -27 -27 -28 -29 -28 -28 -28 -28 -27 -27 -27 -27 -29 -28 -27 -26 -26 -26 -7 4 4 6 6 2 2 4 7 7 7 7 4 6
-16 -17 -18 -20 -21 -22 -24 -25 -25 -24 -24 -23 -24 -23 -24 -24 -25 -25 -25 -25 -25 -25 -25 -25 -26 -26 -24 -20 -23 -24 -12 -1 4 5 6 5 2 6 7 7 6 6 6
-16 -18 -19 -21 -22 -23 -23 -23 -22 -21 -21 -21 -22 -22 -22 -22 -22 -22 -22 -22 -23 -23 -24 -24 -23 -24 -24 -23 -21 -23 -22 -13 -0 3 4 5 5 2 1 3 3 4 5
Wind_Speed
11 7 8 11 12 13 13 13 13 13 12 12 13 12 12 11 10 9 8 8 10 12 11 9 8 9 8 8 7 9 10 11 11 11 11 12 12 13 13 12 13 15 15
12 10 9 10 11 12 12 12 12 12 11 11 10 10 9 8 8 8 8 9 10 11 12 10 9 9 9 8 8 7 11 11 11 11 10 8 10 10 13 13 12 14 13
16 12 10 10 10 11 11 11 10 9 9 8 7 7 7 8 8 9 9 9 10 10 11 10 10 10 10 8 7 9 9 11 13 11 10 10 5 7 9 11 10 10 9
15 14 12 11 11 10 10 10 9 8 7 7 6 7 7 7 7 8 8 7 8 9 9 9 9 9 10 9 7 7 9 10 10 8 5 6 6 5 8 8 8 8 6
20 16 14 12 12 11 9 8 7 7 6 5 5 5 5 5 6 6 5 4 5 6 7 7 7 7 8 8 7 6 7 11 10 7 7 1 3 4 6 7 7 8 7
16 15 16 18 13 12 10 8 7 6 5 5 4 4 4 4 4 3 3 3 4 4 5 5 5 5 5 5 6 6 5 8 10 8 7 7 5 5 6 6 7 6 7
13 9 10 12 16 14 12 9 7 6 5 4 4 5 5 5 4 4 4 4 4 4 4 3 3 3 3 2 2 3 4 4 4 5 3 10 6 8 7 6 5 6 7
9 6 6 8 10 11 14 12 11 9 7 6 6 6 6 6 6 5 6 6 6 6 6 6 4 3 3 3 1 1 1 3 6 3 2 4 3 8 9 7 6 6 6
7 6 5 4 5 5 8 11 12 13 12 11 9 8 9 6 6 6 6 7 7 8 8 8 7 6 5 5 4 3 4 3 6 4 3 5 4 6 9 8 7 6 8
4 4 4 5 4 4 5 7 9 11 11 9 8 7 8 6 5 5 8 8 9 11 10 9 9 8 7 7 7 5 5 5 8 5 4 8 5 5 11 10 8 8 7
4 5 4 3 2 1 2 3 2 5 4 4 5 3 1 4 5 9 10 13 14 13 11 11 11 10 10 9 8 7 6 6 11 8 7 6 7 6 15 10 9 11 9
5 5 5 4 4 3 1 3 3 4 4 5 4 5 5 3 1 1 4 6 8 9 8 9 10 11 13 11 10 9 5 6 11 10 9 9 11 10 9 11 12 14 13
8 7 7 6 5 3 1 2 4 4 6 8 10 8 6 6 5 5 3 2 4 7 7 10 8 11 13 13 12 11 9 5 7 15 11 13 16 14 14 13 13 16 17
8 9 9 8 6 5 4 1 2 3 3 6 9 9 8 7 8 8 7 7 5 5 8 7 10 12 12 13 14 14 15 12 11 10 15 18 20 19 17 16 14 17 21
9 11 11 10 9 8 7 6 3 3 4 4 7 9 7 8 9 9 10 11 10 10 9 10 10 9 11 14 15 15 15 18 16 15 14 18 20 18 18 18 15 13 22
12 13 14 13 13 11 10 8 7 5 4 6 9 12 13 10 10 9 10 11 12 13 13 13 13 12 14 16 16 16 17 17 22 19 20 18 15 18 18 18 18 16 17
13 14 15 16 16 14 14 12 11 11 9 9 9 10 11 10 10 10 10 11 13 14 15 16 17 17 16 15 19 19 19 20 19 23 21 19 20 18 18 17 19 20 19
12 12 14 14 15 15 15 15 14 13 13 13 12 12 12 11 12 12 12 11 13 15 16 15 16 16 17 16 17 15 18 20 21 21 24 25 23 21 19 19 19 21 22
11 11 11 12 13 14 14 14 14 14 14 14 14 15 15 15 14 14 14 15 15 15 15 18 18 17 18 18 20 19 18 19 20 21 24 27 27 28 25 24 21 24 25
10 11 11 12 13 14 14 14 14 16 17 18 19 20 20 20 20 19 17 16 16 17 18 18 19 20 21 21 21 22 22 23 24 24 25 25 28 30 31 31 27 24 26
10 11 14 16 18 19 21 22 22 24 25 24 24 24 24 24 24 24 23 23 22 20 18 20 22 23 23 21 23 26 26 25 27 28 28 29 29 27 30 33 34 32 28
10 12 14 17 20 22 24 26 28 29 29 28 28 27 27 27 26 27 27 27 27 27 24 21 21 24 24 19 19 22 24 27 23 23 22 23 24 25 24 28 33 35 34
11 15 18 20 23 25 27 28 29 30 32 33 33 33 32 30 29 28 27 28 28 28 28 28 25 25 26 25 19 15 10 9 13 12 13 14 20 21 20 21 24 29 33
11 14 17 21 24 26 28 30 31 32 34 34 33 34 34 32 30 29 28 28 28 28 29 28 28 28 28 29 28 26 26 25 13 23 30 28 19 19 23 23 23 25 31
13 16 19 23 25 27 28 29 30 31 31 33 35 36 36 35 33 32 31 31 30 30 30 30 29 30 31 30 29 32 33 33 34 30 28 33 34 27 24 19 19 19 24
14 18 21 24 26 28 29 30 31 32 34 36 37 38 39 39 38 37 35 35 33 32 32 31 30 31 32 34 33 32 35 32 25 25 23 24 35 41 38 38 36 33 24
Wind_Direction
79 60 75 83 82 81 80 82 84 84 85 80 76 74 75 74 70 66 56 49 57 59 62 72 47 51 54 62 84 96 107 104 101 94 102 114 111 108 111 117 122 123 119
89 81 76 79 84 84 82 81 83 84 83 82 79 77 75 59 57 59 60 64 64 59 60 58 50 44 52 58 82 109 102 101 91 92 95 112 122 115 110 112 121 116 117
77 77 84 86 87 87 82 83 82 83 82 78 75 72 67 61 58 60 65 65 60 52 54 54 52 53 51 66 78 101 118 106 95 82 90 95 129 133 129 123 121 122 128
66 68 72 76 80 77 73 72 70 69 67 64 60 56 54 52 57 62 63 54 52 41 40 50 51 51 61 59 77 98 132 127 102 92 100 100 130 136 140 146 152 147 143
78 73 67 69 71 73 74 76 74 70 67 62 53 42 43 48 42 50 54 45 39 33 25 33 51 51 53 67 69 81 119 152 152 131 96 237 157 171 151 145 142 138 131
95 99 100 80 63 62 63 65 64 62 53 41 35 36 31 27 29 27 15 8 9 12 15 14 24 45 49 57 69 78 108 150 172 181 178 204 217 206 182 165 146 142 139
96 87 98 99 100 77 54 50 48 46 41 35 23 13 9 5 1 353 342 338 336 338 345 353 350 351 26 41 59 71 99 157 171 184 189 210 225 213 195 174 148 141 148
100 101 107 96 85 80 80 57 44 38 31 20 11 5 3 359 355 342 329 319 311 314 318 321 315 298 301 324 296 234 111 150 178 203 213 205 238 199 195 179 163 157 167
96 108 110 85 70 70 71 65 59 41 36 31 30 32 30 19 9 353 340 317 309 303 301 302 302 299 287 289 295 269 224 180 183 201 289 265 236 236 196 190 185 186 191
86 82 81 75 70 56 49 75 69 64 41 38 35 59 42 29 10 331 321 321 317 308 301 295 293 289 286 287 290 291 264 216 179 182 250 263 249 270 215 196 200 207 204
54 52 46 40 35 59 85 123 133 102 67 39 49 333 13 38 16 356 326 316 314 305 297 299 295 288 283 281 282 281 271 240 204 208 234 260 249 261 223 211 215 210 205
39 32 17 4 343 351 321 181 211 195 202 230 246 263 271 260 189 200 347 350 343 324 315 309 306 303 295 282 275 264 255 263 225 210 220 228 251 247 248 245 232 223 208
28 18 18 14 1 352 292 228 236 247 249 257 259 269 271 250 245 250 277 316 350 334 320 317 294 309 305 291 268 258 253 256 240 225 231 235 241 251 252 244 235 234 221
33 31 27 23 13 8 353 268 245 245 258 270 284 287 278 264 246 244 246 249 260 294 281 284 305 311 312 303 285 269 261 251 250 259 251 243 240 245 244 244 245 233 225
43 41 38 33 29 24 12 15 341 262 260 319 296 298 293 288 281 267 253 251 250 252 271 269 264 287 295 292 282 276 258 245 249 247 259 258 255 255 248 242 242 235 225
55 53 51 46 42 39 34 29 28 10 345 320 321 322 320 314 304 292 273 256 253 257 260 265 273 262 265 272 278 272 263 254 239 243 249 250 251 257 251 240 237 235 231
57 55 55 52 50 47 44 40 33 21 8 5 3 349 342 333 326 319 304 283 273 267 266 268 266 260 269 271 268 271 270 259 254 244 238 247 253 250 251 245 236 235 235
63 58 56 54 51 47 43 38 32 28 17 15 13 5 356 350 336 325 315 309 293 288 289 283 275 266 263 274 276 272 266 264 259 251 249 246 245 246 250 247 243 239 239
63 59 52 45 37 35 33 30 26 19 13 6 1 357 352 349 342 337 328 315 306 300 300 292 282 279 276 271 270 268 268 270 265 258 246 245 248 248 250 252 247 241 237
55 46 38 29 23 17 9 4 1 0 358 356 350 347 342 337 334 330 325 320 314 306 298 293 292 283 278 279 276 271 267 266 267 266 265 255 247 243 246 251 252 248 243
40 29 21 13 9 2 357 353 350 349 346 343 342 339 334 330 327 324 319 315 314 310 304 300 296 293 288 284 286 274 269 267 267 268 268 268 262 252 247 244 248 253 246
27 19 12 8 3 359 355 352 348 342 338 336 332 330 330 327 325 321 318 314 311 307 302 297 294 291 284 284 289 289 296 292 282 279 273 266 266 264 256 249 244 243 248
16 12 6 360 356 352 348 342 337 333 331 330 329 327 326 324 321 317 314 311 307 304 301 299 296 294 290 274 271 279 294 274 282 245 244 252 263 256 266 262 253 246 245
5 359 354 350 348 344 341 338 336 334 330 328 324 321 319 318 315 313 310 307 303 301 297 293 292 291 289 285 272 258 258 268 289 287 267 262 270 253 254 262 257 258 241
350 347 345 342 339 336 335 333 331 329 327 324 324 323 322 319 318 315 311 308 304 300 297 295 289 285 284 284 277 274 268 262 264 271 279 277 267 246 245 247 260 263 246
341 339 337 334 334 334 335 335 333 330 329 327 325 323 322 321 319 317 315 312 308 303 299 295 291 285 282 281 281 273 270 272 265 269 280 277 275 267 259 253 260 261 251
Height
1566 1566 1565 1565 1565 1565 1565 1565 1565 1565 1564 1564 1564 1564 1563 1562 1562 1562 1562 1561 1561 1561 1560 1560 1559 1558 1557 1557 1557 1558 1558 1558 1558 1558 1558 1558 1559 1560 1560 1561 1561 1560 1561
1566 1567 1566 1566 1566 1566 1566 1567 1566 1566 1567 1566 1566 1566 1565 1564 1563 1563 1562 1562 1562 1561 1561 1560 1559 1558 1558 1558 1558 1559 1559 1560 1560 1560 1560 1561 1561 1562 1562 1562 1563 1563 1563
1566 1568 1567 1567 1567 1567 1567 1568 1567 1568 1567 1567 1567 1567 1566 1566 1565 1564 1564 1563 1563 1562 1562 1561 1560 1560 1559 1559 1559 1559 1561 1561 1561 1561 1561 1562 1563 1563 1564 1564 1564 1565 1565
1568 1569 1570 1570 1569 1569 1570 1570 1569 1569 1569 1569 1569 1568 1568 1567 1566 1566 1566 1566 1565 1564 1563 1563 1562 1561 1561 1561 1560 1560 1561 1562 1562 1562 1562 1562 1563 1564 1564 1564 1565 1565 1566
1569 1571 1572 1572 1572 1571 1571 1570 1570 1570 1569 1569 1569 1569 1568 1568 1567 1567 1567 1566 1566 1565 1564 1564 1564 1563 1562 1562 1561 1561 1561 1562 1563 1563 1563 1563 1564 1564 1565 1565 1565 1565 1566
1570 1570 1569 1571 1573 1573 1573 1572 1572 1572 1571 1570 1570 1570 1569 1568 1568 1568 1567 1567 1566 1566 1565 1564 1564 1564 1564 1563 1562 1562 1562 1562 1562 1563 1564 1564 1564 1565 1565 1565 1565 1566 1566
1573 1574 1573 1571 1569 1572 1574 1573 1573 1572 1572 1571 1571 1570 1569 1569 1568 1568 1567 1567 1566 1566 1565 1565 1564 1563 1563 1563 1563 1562 1562 1563 1562 1562 1563 1564 1564 1565 1565 1566 1565 1566 1566
1575 1575 1575 1574 1574 1574 1572 1574 1574 1574 1573 1572 1571 1570 1570 1569 1568 1567 1567 1567 1566 1565 1565 1565 1564 1563 1562 1562 1562 1562 1562 1561 1562 1562 1562 1563 1564 1564 1564 1565 1565 1566 1567
1576 1576 1576 1576 1575 1574 1574 1574 1574 1574 1573 1572 1571 1571 1570 1569 1568 1566 1566 1566 1565 1565 1564 1563 1563 1563 1562 1562 1561 1561 1561 1561 1561 1561 1562 1562 1562 1563 1564 1565 1565 1566 1566
1576 1576 1576 1576 1576 1576 1575 1574 1573 1573 1573 1572 1571 1570 1569 1568 1567 1566 1566 1565 1564 1564 1563 1562 1561 1561 1561 1561 1560 1560 1559 1560 1560 1560 1561 1561 1562 1562 1563 1563 1564 1565 1566
1576 1576 1575 1575 1575 1575 1574 1573 1572 1572 1571 1571 1570 1569 1568 1567 1566 1566 1566 1565 1563 1562 1561 1561 1560 1560 1559 1559 1558 1558 1557 1558 1559 1559 1559 1560 1561 1561 1562 1562 1563 1564 1565
1575 1574 1574 1574 1574 1573 1574 1573 1572 1571 1570 1568 1568 1568 1568 1567 1566 1565 1564 1564 1563 1561 1560 1559 1558 1558 1557 1557 1556 1556 1556 1556 1556 1557 1557 1558 1559 1560 1560 1561 1562 1562 1563
1575 1575 1573 1573 1572 1571 1571 1571 1571 1569 1569 1568 1566 1566 1566 1565 1565 1564 1563 1562 1561 1560 1559 1557 1556 1556 1555 1554 1554 1553 1553 1553 1554 1554 1554 1555 1557 1557 1558 1558 1559 1560 1561
1575 1574 1573 1572 1571 1570 1570 1568 1568 1566 1565 1565 1564 1564 1564 1563 1562 1562 1561 1560 1558 1557 1556 1555 1554 1553 1552 1551 1551 1551 1550 1550 1552 1552 1552 1552 1553 1554 1555 1556 1556 1556 1558
1575 1574 1573 1573 1571 1570 1570 1569 1567 1565 1564 1564 1563 1561 1561 1561 1561 1560 1558 1557 1556 1555 1554 1553 1553 1552 1551 1549 1548 1547 1547 1547 1547 1548 1549 1549 1550 1550 1551 1552 1553 1553 1555
1576 1575 1574 1573 1571 1570 1569 1568 1566 1565 1565 1565 1564 1562 1560 1559 1557 1557 1556 1554 1553 1552 1551 1551 1550 1548 1547 1545 1544 1543 1543 1543 1543 1544 1544 1545 1546 1546 1547 1548 1549 1550 1551
1576 1576 1575 1574 1573 1571 1569 1568 1567 1566 1565 1564 1563 1561 1560 1558 1556 1554 1552 1551 1550 1549 1548 1547 1546 1544 1542 1541 1540 1539 1539 1539 1540 1540 1540 1540 1541 1542 1543 1543 1544 1545 1547
1577 1576 1576 1575 1574 1573 1571 1570 1568 1567 1565 1563 1562 1560 1558 1557 1554 1552 1550 1548 1547 1546 1545 1543 1542 1540 1538 1537 1535 1534 1534 1534 1534 1535 1536 1536 1536 1538 1538 1539 1540 1541 1542
1577 1577 1576 1575 1574 1573 1572 1571 1569 1567 1565 1563 1561 1560 1558 1555 1552 1550 1548 1546 1544 1543 1541 1539 1538 1537 1534 1533 1531 1529 1529 1528 1528 1528 1529 1531 1532 1533 1533 1534 1535 1537 1537
1578 1578 1576 1575 1574 1572 1571 1570 1569 1567 1565 1562 1559 1557 1556 1553 1551 1548 1545 1543 1541 1539 1537 1536 1533 1532 1531 1529 1526 1525 1523 1523 1523 1522 1522 1524 1525 1526 1527 1528 1529 1531 1532
1579 1578 1577 1575 1573 1571 1568 1566 1564 1562 1561 1559 1557 1554 1552 1550 1547 1544 1542 1539 1537 1535 1533 1531 1528 1526 1525 1526 1521 1519 1517 1517 1516 1516 1516 1516 1517 1518 1520 1521 1522 1524 1526
1578 1577 1576 1574 1573 1570 1568 1565 1563 1560 1558 1556 1553 1551 1548 1545 1543 1540 1538 1535 1532 1530 1528 1527 1524 1521 1521 1521 1520 1517 1512 1510 1510 1509 1510 1510 1510 1511 1512 1513 1514 1516 1518
1577 1576 1575 1573 1572 1569 1566 1563 1560 1557 1555 1551 1547 1544 1542 1539 1537 1535 1533 1530 1527 1524 1522 1521 1520 1518 1514 1515 1516 1517 1512 1507 1504 1503 1503 1504 1504 1504 1506 1506 1507 1509 1511
1574 1574 1572 1571 1569 1567 1564 1560 1556 1552 1547 1546 1542 1539 1536 1533 1530 1528 1526 1523 1520 1518 1515 1513 1513 1512 1510 1507 1508 1509 1508 1506 1503 1497 1497 1497 1499 1499 1501 1501 1501 1502 1503
1573 1571 1569 1568 1567 1564 1561 1557 1552 1548 1545 1540 1536 1531 1528 1524 1523 1520 1518 1516 1513 1510 1508 1506 1504 1504 1503 1502 1501 1499 1497 1498 1498 1496 1489 1488 1491 1493 1494 1495 1496 1496 1498
1571 1569 1566 1563 1562 1558 1554 1551 1547 1542 1536 1532 1529 1524 1520 1516 1513 1511 1509 1506 1504 1502 1500 1498 1495 1494 1494 1492 1492 1492 1491 1490 1491 1491 1485 1484 1483 1482 1485 1487 1488 1490 1491